Location: Castelbiague
(43.0361°N, 0.9246°E)
Time: 12:48:25
(UTC+00:00)

OBJECT G - Visible Passes

Search period start: 22 January 2022 00:00
Search period end: 01 February 2022 00:00
Orbit: 500 x 516 km, 97.4° (Epoch: 21 January)

Date Brightness Start Highest point End Pass type
(mag) Time Alt. Az. Time Alt. Az. Time Alt. Az.
22 Jan ? 17:32:26 10° ESE 17:34:54 17° ENE 17:37:23 10° NNE visible
22 Jan ? 19:05:11 10° SSW 19:08:34 33° W 19:11:57 10° NNW visible
23 Jan ? 06:34:52 10° NE 06:37:36 19° E 06:40:19 10° SE visible
23 Jan ? 18:47:39 10° S 18:51:18 55° W 18:54:56 10° NNW visible
24 Jan ? 06:18:40 10° ENE 06:20:14 12° E 06:21:49 10° ESE visible
24 Jan ? 18:30:21 10° SSE 18:34:04 87° ENE 18:37:47 10° NNW visible
25 Jan ? 18:13:15 10° SSE 18:16:51 52° ENE 18:20:27 10° N visible
25 Jan ? 19:50:09 10° WSW 19:51:03 11° W 19:51:58 10° WNW visible
26 Jan ? 17:56:22 10° SE 17:59:40 32° ENE 18:02:59 10° N visible
26 Jan ? 19:31:10 10° SW 19:33:39 17° W 19:36:09 10° NW visible
27 Jan ? 17:39:45 10° ESE 17:42:32 21° ENE 17:45:20 10° NNE visible
27 Jan ? 19:13:07 10° SSW 19:16:17 27° W 19:19:29 10° NW visible
28 Jan ? 06:42:16 10° NE 06:45:19 24° E 06:48:21 10° SSE visible
28 Jan ? 18:55:25 10° S 18:58:57 43° W 19:02:31 10° NNW visible
29 Jan ? 06:25:42 10° NE 06:27:55 15° E 06:30:09 10° SE visible
29 Jan ? 18:37:58 10° S 18:41:40 75° W 18:45:21 10° NNW visible
30 Jan ? 18:20:44 10° SSE 18:24:23 65° ENE 18:28:03 10° N visible
31 Jan ? 18:03:42 10° SE 18:07:09 39° ENE 18:10:36 10° N visible
31 Jan ? 19:39:14 10° SW 19:41:13 14° W 19:43:14 10° WNW visible
